Location: Unspecified
(0.0000°N, 0.0000°E)
Time: 18:53:57
(UTC-06:00)

Hubble Space Telescope - Visible Passes

Search period start: 22 January 2019 00:00
Search period end: 01 February 2019 00:00
Orbit: 537 x 540 km, 28.5° (Epoch: 22 January)

Date Brightness Start Highest point End Pass type
(mag) Time Alt. Az. Time Alt. Az. Time Alt. Az.
24 Jan 3.2 14:09:37 10° SSW 14:10:51 15° S 14:10:51 15° S visible
25 Jan 2.6 13:58:40 10° SSW 14:01:02 22° S 14:01:02 22° S visible
26 Jan 1.9 13:47:53 10° SW 13:51:16 33° SSE 13:51:16 33° SSE visible
27 Jan 1.1 13:37:14 10° SW 13:41:14 49° SSE 13:41:32 48° SE visible
28 Jan 0.7 13:26:40 10° SW 13:30:47 72° SSE 13:31:51 47° E visible
28 Jan 3.2 23:41:59 10° N 23:44:17 14° NNE 23:46:36 10° ENE visible
29 Jan 0.7 13:16:13 10° WSW 13:20:20 78° NNW 13:22:12 31° NE visible
29 Jan 2.8 23:30:51 10° NNW 23:33:53 20° NNE 23:36:56 10° ENE visible
30 Jan 1.2 13:05:51 10° WSW 13:09:53 53° NNW 13:12:34 19° NE visible
30 Jan 2.4 23:20:06 11° NNW 23:23:28 27° NNE 23:26:59 10° E visible
31 Jan 1.9 12:55:37 10° W 12:59:26 37° NNW 13:02:57 12° NE visible
31 Jan 1.8 23:10:28 18° NNW 23:13:02 37° NNE 23:16:53 10° E visible
